Location: Rosenheim
(47.8408°N, 12.2113°E)
Time: 18:25:38
(UTC+01:00)

OTV 5 (USA 277) - Visible Passes

Search period start: 24 February 2018 00:00
Search period end: 06 March 2018 00:00
Orbit: 404 x 417 km, 43.0° (Epoch: 07 September)

Date Brightness Start Highest point End Pass type
(mag) Time Alt. Az. Time Alt. Az. Time Alt. Az.
24 Feb ? 05:03:42 18° SSE 05:04:04 19° SSE 05:06:28 10° ESE visible
25 Feb ? 04:15:03 10° ESE 04:15:03 10° ESE 04:15:04 10° ESE visible
25 Feb ? 05:47:48 16° SW 05:49:55 31° S 05:52:53 10° ESE visible
26 Feb ? 04:59:06 27° SSE 04:59:06 27° SSE 05:01:49 10° ESE visible
27 Feb ? 04:10:22 12° ESE 04:10:22 12° ESE 04:10:43 10° ESE visible
27 Feb ? 05:43:07 20° SW 05:44:54 35° S 05:47:56 10° ESE visible
28 Feb ? 04:54:23 32° SSE 04:54:23 32° SSE 04:56:57 10° ESE visible
01 Mar ? 04:05:38 12° ESE 04:05:38 12° ESE 04:05:56 10° ESE visible
01 Mar ? 05:38:23 21° SW 05:39:52 31° S 05:42:50 10° SE visible
02 Mar ? 04:49:40 30° SSE 04:49:40 30° SSE 04:51:56 10° ESE visible
03 Mar ? 04:00:59 10° ESE 04:00:59 10° ESE 04:00:59 10° ESE visible
03 Mar ? 05:33:44 19° SW 05:34:48 23° SSW 05:37:28 10° SE visible
04 Mar ? 04:45:06 21° SSE 04:45:06 21° SSE 04:46:43 10° SE visible
05 Mar ? 05:29:19 14° SSW 05:29:39 14° SSW 05:31:28 10° S visible
